Station VCAT2 - 8773259 - Port Lavaca, TX Image indicating link to RSS feed of recent meteorological observations for station VCAT2


Conditions at VCAT2 as of
(4:00 pm CDT)
2100 GMT on 04/19/2024:
     

Click on the graph icon in the table below to see a time series plot of the last five days of that observation.

5-day plot - Wind Direction Wind Direction (WDIR): SE ( 130 deg true )
5-day plot - Wind Speed Wind Speed (WSPD): 15.0 kts
5-day plot - Wind Gust Wind Gust (GST): 17.1 kts
5-day plot - Atmospheric Pressure Atmospheric Pressure (PRES):29.91 in
5-day plot - Pressure Tendency Pressure Tendency (PTDY):-0.05 in ( Falling )
5-day plot - Air Temperature Air Temperature (ATMP): 77.7 °F
5-day plot - Water Temperature Water Temperature (WTMP): 81.9 °F
5-day plot -  Wind Speed, Wind Gust and Atmospheric Pressure Combined plot of Wind Speed, Gust, and Air Pressure
Previous observations
TIME
(CDT)
5-day plot - Wind Direction
WDIR
 
5-day plot - Wind Speed
WSPD
kts
5-day plot - Wind Gust
GST
kts
5-day plot - Wave Height
WVHT
ft
5-day plot - Dominant Wave Period
DPD
sec
5-day plot - Average Wave Period
APD
sec
5-day plot - Mean Wave Direction
MWD
 
5-day plot - Atmospheric Pressure
PRES
in
5-day plot - Pressure Tendency
PTDY
in
5-day plot - Air Temperature
ATMP
°F
5-day plot - Water Temperature
WTMP
°F
5-day plot - Dew Point
DEWP
°F
5-day plot - Salinity
SAL
psu
5-day plot - Visibility
VIS
nmi
5-day plot - Tide (above MLLW)
TIDE
ft
2024-04-19 03:54 pm SE 15.9 17.1----29.91- 77.5 81.9----
2024-04-19 03:48 pm SE 15.9 18.1----29.91- 77.5 81.9----
2024-04-19 03:42 pm SE 15.0 18.1----29.91- 77.5 81.9----
2024-04-19 03:36 pm SE 17.1 19.0----29.91- 77.5 81.9----
2024-04-19 03:30 pm SE 17.1 19.0----29.91- 77.2 81.9----
2024-04-19 03:24 pm SE 17.1 20.0----29.91- 77.2 81.9----
2024-04-19 03:18 pm SE 18.1 19.0----29.92- 77.2 81.9----
2024-04-19 03:12 pm SE 17.1 20.0----29.92- 77.5 81.7----
2024-04-19 03:06 pm SE 18.1 20.0----29.92- 77.2 81.7----
2024-04-19 03:00 pm SE 17.1 20.0----29.92-0.05 77.5 81.7----
2024-04-19 02:54 pm SE 18.1 20.0----29.92- 77.2 81.7----
2024-04-19 02:48 pm SE 17.1 19.0----29.92- 77.4 81.5----
2024-04-19 02:42 pm SE 18.1 19.0----29.93- 77.5 81.5----
2024-04-19 02:36 pm SE 17.1 18.1----29.93- 77.5 81.5----
2024-04-19 02:30 pm SE 15.0 18.1----29.93- 77.7 81.3----
2024-04-19 02:24 pm SE 15.9 17.1----29.93- 77.5 81.3----
2024-04-19 02:18 pm SE 15.0 17.1----29.93- 77.5 81.1----
2024-04-19 02:12 pm SE 15.0 17.1----29.94- 77.4 81.1----
2024-04-19 02:06 pm SE 15.0 17.1----29.94- 77.5 81.0----
2024-04-19 02:00 pm SE 14.0 15.9----29.95-0.03 77.5 80.8----
2024-04-19 01:54 pm SE 13.0 15.9----29.95- 77.5 80.6----
2024-04-19 01:48 pm SE 14.0 15.9----29.95- 77.5 80.6----
2024-04-19 01:42 pm SE 14.0 15.9----29.95- 77.4 80.6----
2024-04-19 01:36 pm SE 15.0 17.1----29.95- 77.5 80.4----
2024-04-19 01:30 pm SE 15.0 15.9----29.95- 77.5 80.2----
2024-04-19 01:24 pm SE 12.0 14.0----29.96- 77.7 80.1----
2024-04-19 01:18 pm SE 11.1 14.0----29.96- 77.5 79.9----
2024-04-19 01:12 pm SE 12.0 13.0----29.96- 77.7 79.9----
2024-04-19 01:06 pm SE 12.0 13.0----29.96- 77.5 79.7----
2024-04-19 01:00 pm SE 11.1 12.0----29.96-0.01 77.5 79.7----
2024-04-19 12:54 pm SE 11.1 12.0----29.97- 77.4 79.5----
2024-04-19 12:48 pm SE 11.1 12.0----29.97- 77.4 79.5----
2024-04-19 12:42 pmESE 9.9 11.1----29.97- 77.4 79.3----
2024-04-19 12:36 pmESE 11.1 12.0----29.97- 77.4 79.2----
2024-04-19 12:30 pmESE 9.9 13.0----29.97- 77.4 79.0----
2024-04-19 12:24 pmESE 11.1 12.0----29.97- 77.2 78.8----
2024-04-19 12:18 pmESE 11.1 12.0----29.97- 77.4 78.6----
2024-04-19 12:12 pmESE 11.1 12.0----29.97- 77.4 78.6----
2024-04-19 12:06 pmESE 9.9 11.1----29.97- 77.2 78.6----
2024-04-19 12:00 pmESE 11.1 12.0----29.97+0.03 77.2 78.4----
2024-04-19 11:54 amESE 9.9 12.0----29.97- 77.0 78.4----
2024-04-19 11:48 amESE 11.1 12.0----29.97- 77.0 78.4----
2024-04-19 11:42 amESE 11.1 13.0----29.97- 77.0 78.4----
2024-04-19 11:36 amESE 12.0 13.0----29.98- 76.8 78.4----
2024-04-19 11:30 amESE 11.1 12.0----29.98- 77.0 78.4----
2024-04-19 11:24 amESE 11.1 12.0----29.97- 77.0 78.3----
2024-04-19 11:18 amESE 11.1 11.1----29.97- 76.8 78.3----
2024-04-19 11:12 amESE 9.9 11.1----29.98- 77.0 78.3----
2024-04-19 11:06 amESE 8.9 11.1----29.98- 76.8 78.3----
2024-04-19 11:00 amESE 8.9 9.9----29.98+0.06 76.8 78.3----
2024-04-19 10:54 amESE 8.0 8.9----29.98- 77.0 78.3----
2024-04-19 10:48 amESE 8.0 8.9----29.98- 76.8 78.3----
2024-04-19 10:42 amESE 7.0 8.9----29.98- 76.8 78.3----
2024-04-19 10:36 amESE 7.0 8.9----29.98- 76.8 78.3----
2024-04-19 10:30 amESE 7.0 8.0----29.98- 76.8 78.3----
2024-04-19 10:24 am SE 7.0 8.0----29.98- 76.6 78.3----
2024-04-19 10:18 am SE 8.0 9.9----29.98- 76.6 78.3----
2024-04-19 10:12 am SE 7.0 8.0----29.97- 76.6 78.3----
2024-04-19 10:06 am SE 7.0 8.0----29.97- 76.6 78.3----
2024-04-19 10:00 am SE 8.0 8.9----29.97+0.06 76.6 78.3----
2024-04-19 09:54 am SE 8.0 8.9----29.96- 76.5 78.3----
2024-04-19 09:48 amESE 8.0 8.9----29.96- 76.6 78.3----
2024-04-19 09:42 amESE 8.0 11.1----29.96- 76.5 78.3----
2024-04-19 09:36 amESE 8.9 9.9----29.95- 76.5 78.3----
2024-04-19 09:30 amESE 7.0 8.0----29.96- 76.5 78.3----
2024-04-19 09:24 amESE 7.0 8.9----29.95- 76.3 78.3----
2024-04-19 09:18 amESE 7.0 8.9----29.95- 76.5 78.3----
2024-04-19 09:12 amESE 7.0 8.0----29.94- 76.3 78.3----
2024-04-19 09:06 amESE 7.0 8.0----29.94- 76.3 78.3----
2024-04-19 09:00 am E 6.0 8.0----29.94+0.03 76.1 78.3----
2024-04-19 08:54 amESE 8.0 8.9----29.94- 76.3 78.3----
2024-04-19 08:48 amESE 7.0 8.0----29.94- 76.3 78.3----
2024-04-19 08:42 amESE 7.0 8.9----29.94- 76.1 78.3----
2024-04-19 08:36 amESE 8.0 8.9----29.93- 76.3 78.3----
2024-04-19 08:30 amESE 8.0 8.9----29.93- 76.1 78.3----
2024-04-19 08:24 amESE 8.0 8.9----29.93- 76.1 78.1----
2024-04-19 08:18 amESE 8.9 11.1----29.93- 76.1 78.1----
2024-04-19 08:12 amESE 9.9 12.0----29.92- 76.3 78.1----
2024-04-19 08:06 amESE 11.1 11.1----29.92- 76.3 78.1----
2024-04-19 08:00 amESE 9.9 11.1----29.92+0.00 76.1 78.1----
2024-04-19 07:54 amESE 9.9 9.9----29.92- 76.1 78.1----
2024-04-19 07:48 amESE 8.9 11.1----29.92- 76.1 78.3----
2024-04-19 07:42 amESE 9.9 11.1----29.92- 75.9 78.3----
2024-04-19 07:36 amESE 8.9 11.1----29.91- 75.9 78.3----
2024-04-19 07:30 am SE 9.9 11.1----29.91- 75.9 78.3----
2024-04-19 07:24 am SE 9.9 12.0----29.91- 75.9 78.3----
2024-04-19 07:18 am SE 9.9 12.0----29.91- 76.1 78.3----
2024-04-19 07:12 am SE 11.1 12.0----29.91- 76.1 78.4----
2024-04-19 07:06 am SE 9.9 12.0----29.91- 75.9 78.4----
2024-04-19 07:00 am SE 9.9 11.1----29.91+0.02 76.1 78.6----
2024-04-19 06:54 am SE 8.9 9.9----29.91- 75.9 78.6----
2024-04-19 06:48 am SE 8.0 8.0----29.91- 75.9 78.8----
2024-04-19 06:42 am SE 7.0 8.0----29.91- 75.7 78.8----
2024-04-19 06:36 am SE 6.0 8.0----29.91- 75.7 78.8----
2024-04-19 06:30 amSSE 7.0 8.0----29.91- 75.7 78.8----
2024-04-19 06:24 amSSE 7.0 8.0----29.92- 75.6 78.8----
2024-04-19 06:18 amSSE 6.0 7.0----29.92- 76.1 79.0----
2024-04-19 06:12 amSSE 6.0 7.0----29.92- 75.9 79.0----
2024-04-19 06:06 amSSE 7.0 8.0----29.91- 75.9 79.0----
2024-04-19 06:00 amSSE 6.0 7.0----29.91+0.01 75.7 79.0----
2024-04-19 05:54 am SE 5.1 5.1----29.91- 75.6 79.0----
2024-04-19 05:48 am SE 4.1 6.0----29.91- 75.6 79.0----
2024-04-19 05:42 am SE 5.1 6.0----29.91- 75.6 79.0----
2024-04-19 05:36 am SE 5.1 5.1----29.91- 75.6 79.0----
2024-04-19 05:30 am SE 5.1 6.0----29.91- 75.6 79.0----
2024-04-19 05:24 amSSE 5.1 7.0----29.91- 75.7 79.0----
2024-04-19 05:18 amSSE 6.0 7.0----29.91- 75.7 79.0----
2024-04-19 05:12 am S 7.0 8.0----29.91- 75.7 79.0----
2024-04-19 05:06 amSSE 5.1 7.0----29.91- 75.6 78.8----
2024-04-19 05:00 am SE 5.1 7.0----29.91-0.01 75.4 78.8----
2024-04-19 04:54 am- 0.0 1.9----29.91- 75.6 78.8----
2024-04-19 04:48 am- 0.0 1.9----29.91- 75.2 78.8----
2024-04-19 04:42 amNNE 2.9 5.1----29.91- 75.2 78.4----
2024-04-19 04:36 amENE 4.1 6.0----29.90- 75.6 78.3----
2024-04-19 04:30 amENE 5.1 6.0----29.90- 75.6 78.3----
2024-04-19 04:24 am E 5.1 6.0----29.89- 75.6 78.3----
2024-04-19 04:18 am E 5.1 6.0----29.89- 75.7 78.3----
2024-04-19 04:12 amESE 4.1 6.0----29.89- 75.7 78.4----
2024-04-19 04:06 amESE 5.1 6.0----29.89- 75.7 78.4----
2024-04-19 04:00 amESE 5.1 7.0----29.89+0.00 75.7 78.4----
2024-04-19 03:54 amESE 6.0 8.0----29.88- 75.6 78.4----
2024-04-19 03:48 am E 6.0 7.0----29.89- 75.7 78.6----
2024-04-19 03:42 amESE 5.1 7.0----29.89- 75.7 78.6----
2024-04-19 03:36 amESE 7.0 8.0----29.89- 75.9 78.8----
2024-04-19 03:30 amESE 5.1 7.0----29.89- 75.7 78.8----
2024-04-19 03:24 am SE 6.0 8.0----29.90- 75.7 79.0----
2024-04-19 03:18 am SE 7.0 8.0----29.90- 75.7 79.2----
2024-04-19 03:12 am SE 8.0 8.9----29.90- 75.6 79.5----
2024-04-19 03:06 am SE 5.1 6.0----29.91- 75.7 79.5----
2024-04-19 03:00 amSSE 6.0 6.0----29.91+0.00 75.6 79.5----
2024-04-19 02:54 am S 5.1 6.0----29.91- 75.6 79.5----
2024-04-19 02:48 amSSE 5.1 6.0----29.91- 75.6 79.5----
2024-04-19 02:42 amSSE 2.9 4.1----29.91- 75.6 79.5----
2024-04-19 02:36 amSSE 2.9 5.1----29.91- 75.4 79.5----
2024-04-19 02:30 amSSE 2.9 2.9----29.91- 75.4 79.5----
2024-04-19 02:24 am SE 1.0 1.9----29.91- 75.2 79.5----
2024-04-19 02:18 am SE 1.9 2.9----29.92- 75.2 79.5----
2024-04-19 02:12 am- 0.0 1.0----29.92- 75.2 79.5----
2024-04-19 02:06 am W 1.9 6.0----29.93- 75.2 79.5----
2024-04-19 02:00 am S 1.9 6.0----29.93+0.01 75.2 79.5----
2024-04-19 01:54 am SE 5.1 7.0----29.92- 75.0 79.5----
2024-04-19 01:48 amESE 2.9 4.1----29.92- 75.0 79.5----
2024-04-19 01:42 amESE 1.9 2.9----29.93- 75.0 79.5----
2024-04-19 01:36 am SE 1.9 6.0----29.92- 75.0 79.5----
2024-04-19 01:30 amSSE 5.1 6.0----29.92- 74.8 79.5----
2024-04-19 01:24 amSSE 4.1 7.0----29.91- 75.0 79.7----
2024-04-19 01:18 amSSE 6.0 8.9----29.91- 75.0 79.2----
2024-04-19 01:12 amSSE 8.9 11.1----29.90- 74.8 79.2----
2024-04-19 01:06 amSSE 9.9 12.0----29.89- 74.8 79.3----
2024-04-19 01:00 amSSE 11.1 13.0----29.89-0.05 74.8 79.5----
2024-04-19 12:54 amSSE 9.9 12.0----29.89- 74.8 79.7----
2024-04-19 12:48 amSSE 12.0 13.0----29.90- 74.7 79.9----
2024-04-19 12:42 amSSE 13.0 15.0----29.89- 74.8 79.9----
2024-04-19 12:36 am S 13.0 15.0----29.90- 75.0 79.9----
2024-04-19 12:30 amSSE 13.0 15.0----29.90- 75.2 79.9----
2024-04-19 12:24 amSSE 12.0 15.0----29.90- 75.2 79.9----
2024-04-19 12:18 amSSE 12.0 15.0----29.91- 75.2 79.9----
2024-04-19 12:12 amSSE 12.0 15.9----29.90- 75.4 79.9----
2024-04-19 12:06 am S 14.0 15.9----29.90- 75.4 80.1----
2024-04-19 12:00 amSSE 13.0 14.0----29.90+0.00 75.9 79.9----
2024-04-18 11:54 pmSSE 11.1 13.0----29.90- 75.7 79.9----
2024-04-18 11:48 pm SE 12.0 13.0----29.88- 75.6 79.9----
2024-04-18 11:42 pm SE 11.1 12.0----29.89- 75.6 79.7----
2024-04-18 11:36 pm SE 8.9 11.1----29.91- 75.6 79.7----
2024-04-18 11:30 pm SE 8.9 11.1----29.91- 75.6 79.7----
2024-04-18 11:24 pm SE 9.9 12.0----29.91- 75.4 79.7----
2024-04-18 11:18 pm SE 8.9 11.1----29.91- 75.6 79.7----
2024-04-18 11:12 pm SE 9.9 12.0----29.91- 75.4 79.7----
2024-04-18 11:06 pm SE 8.0 9.9----29.91- 75.4 79.7----
2024-04-18 11:00 pmSSE 9.9 11.1----29.92+0.04 75.4 79.7----
2024-04-18 10:54 pm SE 8.0 9.9----29.92- 75.0 79.7----
2024-04-18 10:48 pm SE 7.0 8.9----29.93- 75.2 79.7----
2024-04-18 10:42 pmESE 8.0 8.9----29.93- 75.2 79.7----
2024-04-18 10:36 pm SE 7.0 8.9----29.93- 75.0 79.7----
2024-04-18 10:30 pmESE 6.0 7.0----29.93- 74.8 79.7----
2024-04-18 10:24 pm SE 5.1 7.0----29.93- 74.8 79.7----
2024-04-18 10:18 pmSSE 5.1 8.9----29.94- 74.8 79.7----
2024-04-18 10:12 pmSSE 7.0 8.0----29.94- 74.8 79.7----
2024-04-18 10:06 pmSSE 6.0 8.9----29.94- 74.7 79.7----
2024-04-18 10:00 pm S 8.0 9.9----29.94+0.07 74.7 79.7----
2024-04-18 09:54 pmSSE 8.9 12.0----29.93- 74.8 79.7----
2024-04-18 09:48 pmSSE 11.1 13.0----29.93- 74.8 79.9----
2024-04-18 09:42 pmSSE 12.0 13.0----29.93- 74.8 79.9----
2024-04-18 09:36 pmSSE 9.9 13.0----29.92- 74.8 79.9----
2024-04-18 09:30 pmSSE 11.1 12.0----29.91- 74.8 79.9----
2024-04-18 09:24 pmSSE 11.1 12.0----29.91- 74.8 79.9----
2024-04-18 09:18 pmSSE 11.1 13.0----29.91- 75.0 79.7----
2024-04-18 09:12 pmSSE 12.0 14.0----29.91- 75.0 79.7----
2024-04-18 09:06 pmSSE 14.0 17.1----29.91- 75.4 79.7----
2024-04-18 09:00 pmSSE 14.0 17.1----29.90+0.04 75.4 79.7----
2024-04-18 08:54 pmSSE 13.0 15.0----29.90- 75.4 79.9----
2024-04-18 08:48 pmSSE 12.0 15.9----29.90- 75.6 79.9----
2024-04-18 08:42 pmSSE 14.0 17.1----29.89- 75.6 79.9----
2024-04-18 08:36 pm SE 15.0 15.9----29.88- 75.4 79.9----
2024-04-18 08:30 pmSSE 15.0 17.1----29.87- 75.6 79.9----
2024-04-18 08:24 pmSSE 14.0 15.9----29.87- 75.7 79.9----
2024-04-18 08:18 pmSSE 14.0 15.9----29.87- 75.7 80.1----
2024-04-18 08:12 pmSSE 15.0 17.1----29.87- 75.6 80.1----
2024-04-18 08:06 pmSSE 14.0 17.1----29.88- 75.7 80.1----
2024-04-18 08:00 pmSSE 15.0 17.1----29.88+0.01 75.7 80.1----
2024-04-18 07:54 pmSSE 15.0 18.1----29.88- 75.9 80.2----
2024-04-18 07:48 pmSSE 15.9 19.0----29.87- 75.4 80.2----
2024-04-18 07:42 pm SE 15.9 18.1----29.87- 75.7 80.2----
2024-04-18 07:36 pm SE 15.9 18.1----29.87- 75.6 80.2----
2024-04-18 07:30 pm SE 17.1 18.1----29.87- 75.6 80.2----
2024-04-18 07:24 pm SE 15.9 19.0----29.87- 75.4 80.4----
2024-04-18 07:18 pm SE 15.9 18.1----29.87- 75.6 80.4----
2024-04-18 07:12 pm SE 17.1 19.0----29.87- 75.6 80.4----
2024-04-18 07:06 pm SE 18.1 19.0----29.87- 75.4 80.4----
2024-04-18 07:00 pm SE 17.1 19.0----29.87+0.00 75.7 80.6----
2024-04-18 06:54 pm SE 15.9 19.0----29.87- 75.6 80.6----
2024-04-18 06:48 pm SE 15.9 18.1----29.87- 75.4 80.6----
2024-04-18 06:42 pm SE 15.0 18.1----29.87- 75.4 80.6----
2024-04-18 06:36 pm SE 15.0 17.1----29.87- 75.6 80.8----
2024-04-18 06:30 pm SE 15.9 17.1----29.87- 75.4 80.8----
2024-04-18 06:24 pm SE 15.0 17.1----29.87- 75.6 80.8----
2024-04-18 06:18 pm SE 15.0 18.1----29.87- 75.6 80.8----
2024-04-18 06:00 pm SE 15.9 19.0----29.86-0.03 75.4 80.8----
2024-04-18 05:54 pm SE 15.9 17.1----29.86- 75.7 81.0----
2024-04-18 05:48 pm SE 15.9 18.1----29.86- 75.6 81.0----
2024-04-18 05:42 pm SE 15.9 19.0----29.86- 75.7 81.0----
2024-04-18 05:36 pm SE 15.9 18.1----29.86- 75.7 81.0----
2024-04-18 05:30 pm SE 15.9 18.1----29.86- 75.7 81.0----
2024-04-18 05:24 pm SE 15.9 20.0----29.86- 75.7 81.0----
2024-04-18 05:18 pm SE 15.9 19.0----29.86- 75.9 81.0----
2024-04-18 05:12 pm SE 18.1 20.0----29.86- 75.6 81.1----
2024-04-18 05:06 pm SE 18.1 20.0----29.86- 75.6 81.1----
2024-04-18 05:00 pm SE 17.1 19.0----29.86-0.04- 81.1----
2024-04-18 04:54 pmESE 15.9 19.0----29.86-- 81.1----
2024-04-18 04:48 pm SE 17.1 19.0----29.86- 75.9 81.1----
2024-04-18 04:42 pm SE 15.9 19.0----29.86- 76.1 81.1----
2024-04-18 04:36 pm SE 18.1 19.0----29.87- 75.9 81.1----
2024-04-18 04:30 pm SE 17.1 18.1----29.87- 75.9 81.1----
2024-04-18 04:24 pm SE 15.9 18.1----29.87- 76.1 81.0----
2024-04-18 04:18 pm SE 17.1 19.0----29.87- 76.3 81.0----
2024-04-18 04:12 pm SE 17.1 19.0----29.87- 76.1 81.0----
2024-04-18 04:06 pm SE 15.0 18.1----29.88- 76.3 81.0----
2024-04-18 04:00 pm SE 15.0 18.1----29.88-0.04 76.3 81.0----
2024-04-18 03:54 pmESE 15.9 19.0----29.88- 76.3 81.0----